Weather History for Thief River Falls, MN

Change the Weather History Date:

Thursday, October 4, 2012

  Actual Average Record
Temperature  
Mean Temperature 38 °F -  
Max Temperature 42 °F 56 °F 84 °F (2011)
Min Temperature 33 °F 37 °F 21 °F (1988)
Degree Days  
Heating Degree Days 28    
Moisture  
Dew Point 32 °F    
Average Humidity 82    
Maximum Humidity 87    
Minimum Humidity 76    
Precipitation  
Precipitation 0.38 in - - ()
Sea Level Pressure  
Sea Level Pressure 29.92 in    
Wind  
Wind Speed 24 mph (NNW)    
Max Wind Speed 33 mph    
Max Gust Speed 45 mph    
Visibility 4 miles    
Events      
Averages and records for this station are not official NWS values.
T = Trace of Precipitation, MM = Missing Value Source: NWS Daily Summary

Daily Weather History Graph

Daily Weather History Graph

Search for Another Location

Airport:

Trip Planner

Search our weather history database for the weather conditions in past years. The results will help you decide how hot, cold, wet, or windy it might be!

Date:

Astronomy

Oct. 04, 2012 Rise Set
Actual Time 7:28 AM CDT 6:56 PM CDT
Civil Twilight 6:57 AM CDT 7:27 PM CDT
Nautical Twilight 6:21 AM CDT 8:03 PM CDT
Astronomical Twilight 5:45 AM CDT 8:39 PM CDT
Moon 9:12 PM CDT (10/4) 12:07 PM CDT (10/4)
Length of Visible Light 12h 29m
Length of Day
11h 27m
Waning Gibbous, 82% of the Moon is Illuminated
Oct 4
Waning Gibbous
Oct 8
Last Quarter
Oct 15
New
Oct 21
First Quarter
Oct 29
Full

Hourly Weather History & Observations

Time (CDT) Temp. Windchill Dew Point Humidity Pressure Visibility Wind Dir Wind Speed Gust Speed Precip Events Conditions
12:15 AM 42.8 °F 34.5 °F 35.6 °F 76% 30.00 in 10.0 mi North 18.4 mph 26.5 mph N/A   Overcast
12:35 AM 42.8 °F 34.8 °F 35.6 °F 76% 29.98 in 10.0 mi North 17.3 mph - N/A   Overcast
12:55 AM 41.0 °F 31.6 °F 35.6 °F 81% 29.97 in 9.0 mi North 20.7 mph 25.3 mph N/A   Overcast
1:15 AM 41.0 °F 31.1 °F 35.6 °F 81% 29.95 in 3.0 mi North 23.0 mph 27.6 mph N/A   Overcast
1:35 AM 41.0 °F 31.4 °F 35.6 °F 81% 29.94 in 4.0 mi North 21.9 mph 25.3 mph N/A   Overcast
1:55 AM 39.2 °F 28.3 °F 35.6 °F 87% 29.92 in 4.0 mi North 25.3 mph 28.8 mph N/A   Overcast
2:15 AM 39.2 °F 28.0 °F 35.6 °F 87% 29.91 in 5.0 mi North 26.5 mph 34.5 mph N/A   Overcast
2:35 AM 39.2 °F 28.0 °F 35.6 °F 87% 29.90 in 6.0 mi North 26.5 mph - N/A   Overcast
2:55 AM 39.2 °F 29.0 °F 35.6 °F 87% 29.90 in 7.0 mi North 21.9 mph - 0.02 in   Overcast
3:15 AM 39.2 °F 28.7 °F 35.6 °F 87% 29.89 in 7.0 mi North 23.0 mph 29.9 mph 0.02 in   Overcast
3:35 AM 39.2 °F 28.3 °F 35.6 °F 87% 29.87 in 9.0 mi North 25.3 mph 31.1 mph 0.04 in   Overcast
3:55 AM 39.2 °F 28.7 °F 35.6 °F 87% 29.86 in 7.0 mi North 23.0 mph 33.4 mph 0.05 in   Overcast
4:15 AM 39.2 °F 28.0 °F 33.8 °F 81% 29.85 in 8.0 mi North 26.5 mph 31.1 mph 0.01 in   Overcast
4:35 AM 39.2 °F 30.2 °F 33.8 °F 81% 29.87 in 5.0 mi NNW 17.3 mph 31.1 mph 0.03 in   Overcast
4:55 AM 37.4 °F 26.6 °F 32.0 °F 81% 29.88 in 5.0 mi NNW 21.9 mph 25.3 mph 0.06 in   Overcast
5:15 AM 35.6 °F 24.8 °F 30.2 °F 81% 29.88 in 4.0 mi NNW 19.6 mph 27.6 mph 0.05 in   Overcast
5:55 AM 33.8 °F 21.6 °F 28.4 °F 81% 29.87 in 4.0 mi NNW 23.0 mph 28.8 mph 0.12 in   Overcast
6:15 AM 33.8 °F 20.5 °F 28.4 °F 81% 29.87 in 5.0 mi NNW 27.6 mph 33.4 mph 0.02 in   Overcast
6:35 AM 33.8 °F 20.8 °F 28.4 °F 81% 29.86 in 3.0 mi NNW 26.5 mph 36.8 mph 0.04 in   Overcast
6:55 AM 33.8 °F 20.5 °F 28.4 °F 81% 29.87 in 3.0 mi NNW 27.6 mph 33.4 mph 0.05 in   Overcast
7:15 AM 33.8 °F 20.8 °F 28.4 °F 81% 29.86 in 1.8 mi NNW 26.5 mph 41.4 mph N/A   Overcast
7:35 AM 33.8 °F 19.6 °F 28.4 °F 81% 29.86 in 1.5 mi NW 32.2 mph 41.4 mph 0.02 in   Overcast
7:55 AM - - - N/A% 29.86 in 0.8 mi NW 32.2 mph 40.3 mph 0.04 in   Overcast
8:15 AM - - - N/A% 29.86 in 0.5 mi NNW 28.8 mph 38.0 mph 0.02 in   Overcast
8:35 AM - - - N/A% 29.86 in 0.5 mi NNW 32.2 mph 39.1 mph 0.03 in   Overcast
8:55 AM - - - N/A% 29.86 in 0.8 mi NNW 33.4 mph 39.1 mph 0.03 in   Overcast
9:15 AM - - - N/A% 29.85 in 0.8 mi NNW 32.2 mph 44.9 mph N/A   Overcast
9:35 AM - - - N/A% 29.85 in 0.5 mi NNW 28.8 mph 42.6 mph 0.01 in   Overcast
9:55 AM - - - N/A% 29.85 in 0.8 mi NNW 27.6 mph 33.4 mph 0.01 in   Overcast
10:15 AM - - - N/A% 29.85 in 0.5 mi NW 28.8 mph 35.7 mph N/A   Overcast
10:35 AM 33.8 °F 20.3 °F 28.4 °F 81% 29.86 in 0.8 mi NW 28.8 mph 35.7 mph N/A   Overcast
10:55 AM 33.8 °F 21.0 °F 28.4 °F 81% 29.87 in 1.2 mi NW 25.3 mph - N/A   Overcast
11:15 AM 33.8 °F 20.5 °F 30.2 °F 87% 29.88 in 1.0 mi NW 27.6 mph 33.4 mph N/A   Overcast
11:35 AM 33.8 °F 20.5 °F 28.4 °F 81% 29.88 in 1.0 mi NW 27.6 mph 33.4 mph N/A   Overcast
11:55 AM - - - N/A% 29.89 in - WNW 27.6 mph - N/A   Unknown
9:35 PM - - - N/A% 30.04 in 5.0 mi WNW 25.3 mph 32.2 mph N/A   Overcast
9:55 PM - - - N/A% 30.04 in 6.0 mi WNW 25.3 mph 34.5 mph N/A   Overcast
10:15 PM - - - N/A% 30.05 in 10.0 mi WNW 21.9 mph 34.5 mph N/A   Overcast
10:35 PM - - - N/A% 30.05 in 9.0 mi WNW 26.5 mph 36.8 mph N/A   Overcast
10:55 PM - - - N/A% 30.05 in 8.0 mi WNW 23.0 mph 32.2 mph N/A   Overcast
11:15 PM - - - N/A% 30.05 in 6.0 mi WNW 20.7 mph 31.1 mph N/A   Overcast
11:35 PM - - - N/A% 30.05 in 6.0 mi WNW 25.3 mph 33.4 mph N/A   Overcast
11:55 PM - - - N/A% 30.05 in 7.0 mi WNW 23.0 mph 31.1 mph N/A   Overcast